Location: Boiro
(42.6475°N, 8.8834°W)
Time: 01:16:55
(UTC+01:00)

Transit 2A Rocket - Pass Details

Date: 07 December 2021
Orbit: 584 x 917 km, 66.7° (Epoch: 23 January)

Event Time Altitude Azimuth Distance (km) Brightness Sun altitude
Rises 08:34:36 0° 215° (SW) 3,301 8.2 -3.6°
Reaches altitude 10° 08:36:57 10° 217° (SW) 2,420 7.5 -3.3°
Maximum altitude 08:42:36 74° 302° (WNW) 908 5.3 -2.3°
Drops below altitude 10° 08:48:40 10° 28° (NNE) 2,595 7.7 -1.4°
Sets 08:51:16 0° 30° (NNE) 3,556 8.5 -1.0°
